Location: Newark
(40.4667°N, 5.6000°W)
Time: 02:40:51
(UTC+00:00)

Vanguard 3 - All Passes

Search period start: 21 November 2019 00:00
Search period end: 01 December 2019 00:00
Orbit: 508 x 3263 km, 33.4° (Epoch: 20 November)

Date Brightness Start Highest point End Pass type
(mag) Time Alt. Az. Time Alt. Az. Time Alt. Az.
21 Nov - 09:55:33 10° SSE 10:03:52 16° SE 10:13:05 10° E daylight
21 Nov - 12:01:00 10° SSW 12:17:01 42° SSE 12:34:19 10° E daylight
21 Nov - 14:13:24 10° WSW 14:32:40 64° SSE 14:49:35 10° E daylight
21 Nov - 16:29:18 10° W 16:48:54 67° S 17:02:38 10° ESE daylight
21 Nov - 18:47:05 10° W 19:03:05 44° SSW 19:13:18 10° SE visible
21 Nov - 21:08:41 10° WSW 21:14:05 14° SW 21:18:32 10° SSW visible
22 Nov - 10:48:06 10° S 11:01:19 30° SE 11:16:44 10° E daylight
22 Nov - 12:58:04 10° SW 13:15:49 56° SSE 13:33:54 10° E daylight
22 Nov - 15:12:22 10° WSW 15:32:12 69° S 15:48:08 10° E daylight
22 Nov - 17:29:14 10° W 17:47:48 57° SSW 18:00:11 10° SE visible
22 Nov - 19:48:08 10° W 20:00:26 27° SW 20:08:56 10° S visible
23 Nov - 09:37:23 10° SSE 09:46:23 18° SE 09:56:53 10° E daylight
23 Nov - 11:43:50 10° SSW 11:59:25 45° SSE 12:17:22 10° E daylight
23 Nov - 13:56:14 10° WSW 14:15:10 66° S 14:32:55 10° E daylight
23 Nov - 16:11:53 10° W 16:31:37 66° SSW 16:46:16 10° ESE daylight
23 Nov - 18:29:33 10° W 18:45:58 42° SW 18:56:56 10° SSE visible
23 Nov - 20:52:18 10° WSW 20:57:04 12° SW 21:01:11 10° SSW visible
24 Nov - 10:30:52 10° SSW 10:43:45 32° SE 10:59:43 10° E daylight
24 Nov - 12:41:03 10° SW 12:58:14 59° SSE 13:16:59 10° E daylight
24 Nov - 14:55:09 10° W 15:14:46 70° S 15:31:35 10° ESE daylight
24 Nov - 17:11:44 10° W 17:30:33 55° SSW 17:43:48 10° SE visible
24 Nov - 19:30:49 10° W 19:43:18 25° SW 19:52:17 10° S visible
25 Nov - 09:19:44 10° S 09:28:57 20° SE 09:40:15 10° E daylight
25 Nov - 11:26:53 10° SW 11:41:50 48° SSE 12:00:15 10° E daylight
25 Nov - 13:39:14 10° WSW 13:57:39 68° S 14:16:08 10° E daylight
25 Nov - 15:54:34 10° W 16:14:14 65° SSW 16:29:47 10° ESE daylight
25 Nov - 18:12:04 10° W 18:28:43 40° SW 18:40:25 10° SSE visible
25 Nov - 20:36:29 10° WSW 20:39:58 11° SW 20:43:07 10° SW visible
26 Nov - 10:13:52 10° SSW 10:26:15 35° SE 10:42:32 10° E daylight
26 Nov - 12:24:12 10° WSW 12:40:41 61° SSE 12:59:56 10° E daylight
26 Nov - 14:38:06 10° W 14:57:18 69° S 15:14:55 10° ESE daylight
26 Nov - 16:54:21 10° W 17:13:11 53° SSW 17:27:17 10° SE visible
26 Nov - 19:13:38 10° W 19:26:03 24° SW 19:35:26 10° S visible
27 Nov - 09:02:27 10° S 09:11:35 22° SE 09:23:20 10° E daylight
27 Nov - 11:10:07 10° SW 11:24:20 51° SSE 11:42:59 10° E daylight
27 Nov - 13:22:23 10° WSW 13:40:08 69° S 13:59:13 10° E daylight
27 Nov - 15:37:23 10° W 15:56:47 63° SSW 16:13:09 10° ESE daylight
27 Nov - 17:54:41 10° W 18:11:20 37° SW 18:23:44 10° SSE visible
28 Nov - 09:57:05 10° SSW 10:08:51 37° SE 10:25:13 10° E daylight
28 Nov - 12:07:31 10° WSW 12:23:12 63° SSE 12:42:46 10° E daylight
28 Nov - 14:21:09 10° W 14:39:47 69° S 14:58:06 10° ESE daylight
28 Nov - 16:37:03 10° W 16:55:42 50° SSW 17:10:36 10° SE daylight
28 Nov - 18:56:34 10° W 19:08:42 22° SW 19:18:19 10° S visible
29 Nov - 08:45:28 10° S 08:54:18 23° SE 09:06:14 10° E daylight
29 Nov - 10:53:32 10° SW 11:06:56 53° SSE 11:25:37 10° E daylight
29 Nov - 13:05:41 10° WSW 13:22:38 69° S 13:42:11 10° E daylight
29 Nov - 15:20:18 10° W 15:39:15 61° SSW 15:56:22 10° SE daylight
29 Nov - 17:37:26 10° W 17:53:52 35° SW 18:06:50 10° SSE visible
30 Nov - 07:38:06 10° SE 07:40:32 11° SE 07:43:10 10° ESE daylight
30 Nov - 09:40:30 10° SSW 09:51:33 39° SE 10:07:46 10° E daylight
30 Nov - 11:50:59 10° WSW 12:05:48 65° SSE 12:25:29 10° E daylight
30 Nov - 14:04:20 10° W 14:22:16 67° S 14:41:08 10° ESE daylight
30 Nov - 16:19:54 10° W 16:38:09 48° SSW 16:53:43 10° SE daylight
30 Nov - 18:39:45 10° W 18:51:16 20° SW 19:00:54 10° S visible
